Location: Doverdale
(52.2833°N, 2.2000°W)
Time: 03:17:12
(UTC+00:00)

Cosmos 2369 - Pass Details

Date: 29 October 2020
Orbit: 840 x 855 km, 71.0° (Epoch: 24 November)

Event Time Altitude Azimuth Distance (km) Brightness Sun altitude
Rises 18:27:51 0° 187° (S) 3,411 7.0 -16.2°
Reaches altitude 10° 18:30:23 10° 181° (S) 2,477 6.2 -16.6°
Maximum altitude 18:35:45 44° 110° (ESE) 1,158 4.0 -17.5°
Enters shadow 18:39:12 21° 49° (NE) 1,825 5.0 -18.0°
